Danville, VA

10:12 AM EDT on October 23, 2017 (GMT -0400)
Danville Regional

Weather History for KDAN - January, 2015

Change the Weather History Date:

Monday, January 26, 2015

  Actual Average Record
Temperature  
Mean Temperature 42 °F 38 °F  
Max Temperature 49 °F 47 °F 77 °F (1950)
Min Temperature 35 °F 30 °F 11 °F (1961)
Degree Days  
Heating Degree Days 23 27  
Month to date heating degree days 682 713  
Since 1 July heating degree days 2103 2195  
Cooling Degree Days 0 0  
Month to date cooling degree days 0 0  
Year to date cooling degree days 0 0  
Moisture  
Dew Point 35 °F    
Average Humidity 75    
Maximum Humidity 92    
Minimum Humidity 58    
Precipitation  
Precipitation 0.03 in 0.11 in 1.93 in (1978)
Month to date precipitation 1.50 2.82  
Year to date precipitation 1.50 2.82  
Snow  
Snow T in - - ()
Month to date snowfall T  
Since 1 July snowfall T  
Snow Depth 0.00 in    
Sea Level Pressure  
Sea Level Pressure 29.67 in    
Wind  
Wind Speed 6 mph (NNE)    
Max Wind Speed 20 mph    
Max Gust Speed 26 mph    
Visibility 10 miles    
Events Rain , Snow    
T = Trace of Precipitation, MM = Missing Value Source: NWS Daily Summary

Daily Weather History Graph

Daily Weather History Graph

Search for Another Location

Airport or City:

Trip Planner

Search our weather history database for the weather conditions in past years. The results will help you decide how hot, cold, wet, or windy it might be!

Date:

Astronomy

Jan. 26, 2015 Rise Set
Actual Time 7:23 AM EST 5:36 PM EST
Civil Twilight 6:56 AM EST 6:04 PM EST
Nautical Twilight 6:24 AM EST 6:35 PM EST
Astronomical Twilight 5:54 AM EST 7:05 PM EST
Moon 11:18 AM EST (1/26) No Moon Set
Length of Visible Light 11h 08m
Length of Day
10h 13m
Waxing Crescent, 45% of the Moon is Illuminated
Jan 26
Waxing Crescent
Jan 26
First Quarter
Feb 3
Full
Feb 11
Last Quarter
Feb 18
New

Hourly Weather History & Observations

Time (EST) Temp. Windchill Dew Point Humidity Pressure Visibility Wind Dir Wind Speed Gust Speed Precip Events Conditions
12:53 AM 46.0 °F 43.9 °F 33.1 °F 61% 29.72 in 10.0 mi Variable 4.6 mph - N/A   Overcast
1:53 AM 45.0 °F - 34.0 °F 65% 29.71 in 10.0 mi Calm Calm - 0.00 in Rain Light Rain
2:53 AM 43.0 °F 40.3 °F 34.0 °F 71% 29.68 in 10.0 mi East 4.6 mph - 0.00 in   Overcast
3:53 AM 42.1 °F 40.2 °F 35.1 °F 76% 29.67 in 10.0 mi East 3.5 mph - N/A   Overcast
4:53 AM 41.0 °F 39.0 °F 35.1 °F 79% 29.66 in 10.0 mi East 3.5 mph - N/A   Overcast
5:53 AM 39.9 °F - 36.0 °F 86% 29.65 in 10.0 mi Calm Calm - N/A   Overcast
6:53 AM 39.9 °F 37.8 °F 36.0 °F 86% 29.67 in 10.0 mi NNE 3.5 mph - N/A   Overcast
7:53 AM 37.9 °F - 35.1 °F 89% 29.67 in 10.0 mi Calm Calm - N/A   Clear
8:53 AM 39.9 °F 36.7 °F 37.0 °F 89% 29.67 in 10.0 mi ENE 4.6 mph - N/A   Partly Cloudy
9:53 AM 44.1 °F 40.1 °F 37.9 °F 79% 29.66 in 10.0 mi NE 6.9 mph - N/A   Overcast
10:44 AM 44.1 °F - 37.0 °F 76% 29.67 in 10.0 mi Calm Calm - N/A   Mostly Cloudy
10:53 AM 46.0 °F - 37.9 °F 73% 29.65 in 10.0 mi Calm Calm - N/A   Overcast
11:31 AM 46.9 °F - 37.0 °F 68% 29.66 in 10.0 mi NNE 4.6 mph - N/A   Overcast
11:53 AM 48.0 °F - 37.9 °F 68% 29.63 in 10.0 mi NE 8.1 mph - N/A   Overcast
12:53 PM 46.9 °F - 37.0 °F 68% 29.62 in 10.0 mi North 6.9 mph - N/A   Overcast
1:53 PM 48.0 °F - 37.0 °F 66% 29.61 in 10.0 mi NE 9.2 mph - N/A   Overcast
2:10 PM 46.9 °F - 37.0 °F 68% 29.62 in 10.0 mi NE 6.9 mph - N/A   Overcast
2:53 PM 46.9 °F - 37.0 °F 68% 29.60 in 10.0 mi North 5.8 mph - N/A   Overcast
3:53 PM 46.0 °F 41.0 °F 37.9 °F 73% 29.61 in 10.0 mi North 10.4 mph - N/A   Overcast
4:53 PM 44.1 °F 40.1 °F 37.0 °F 76% 29.62 in 10.0 mi North 6.9 mph - N/A   Overcast
5:32 PM 44.1 °F 40.8 °F 37.0 °F 76% 29.64 in 10.0 mi NNE 5.8 mph - N/A   Overcast
5:53 PM 44.1 °F 40.1 °F 37.0 °F 76% 29.65 in 10.0 mi NNE 6.9 mph - N/A   Overcast
6:53 PM 42.1 °F 37.7 °F 37.0 °F 82% 29.68 in 10.0 mi North 6.9 mph - 0.00 in Rain Light Rain
7:53 PM 41.0 °F 36.4 °F 36.0 °F 82% 29.69 in 10.0 mi NNE 6.9 mph - 0.01 in Rain Light Rain
8:44 PM 41.0 °F 38.0 °F 37.0 °F 86% 29.71 in 5.0 mi North 4.6 mph - 0.02 in Rain Light Rain
8:53 PM 41.0 °F 38.0 °F 37.0 °F 86% 29.70 in 6.0 mi NNW 4.6 mph - 0.02 in Rain Light Rain
9:16 PM 41.0 °F 38.0 °F 37.0 °F 86% 29.72 in 10.0 mi NNW 4.6 mph - 0.00 in   Overcast
9:39 PM 41.0 °F 33.5 °F 33.1 °F 73% 29.72 in 10.0 mi NNW 13.8 mph 20.7 mph 0.00 in   Overcast
9:49 PM 39.2 °F 31.6 °F 30.2 °F 70% 29.72 in 10.0 mi NNW 12.7 mph - 0.00 in   Overcast
9:53 PM 39.9 °F 32.9 °F 30.9 °F 70% 29.71 in 10.0 mi NNW 11.5 mph 20.7 mph 0.00 in   Overcast
10:53 PM 39.0 °F 29.9 °F 28.0 °F 65% 29.71 in 10.0 mi NW 17.3 mph 23.0 mph N/A   Overcast
11:53 PM 36.0 °F 26.0 °F 27.0 °F 70% 29.72 in 5.0 mi WNW 17.3 mph 25.3 mph 0.00 in Snow Light Snow